TimeCST,TemperatureF,Dew PointF,Humidity,Sea Level PressureIn,VisibilityMPH,Wind Direction,Wind SpeedMPH,Gust SpeedMPH,PrecipitationIn,Events,Conditions,WindDirDegrees,DateUTC
12:51 AM,15.1,-2.0,47,30.43,10.0,NW,6.9,-,N/A,,Scattered Clouds,320,2013-01-22 06:51:00
1:51 AM,15.1,-2.0,47,30.44,10.0,NW,6.9,-,N/A,,Mostly Cloudy,320,2013-01-22 07:51:00
2:51 AM,14.0,-2.0,49,30.45,10.0,NW,5.8,-,N/A,,Mostly Cloudy,320,2013-01-22 08:51:00
3:51 AM,14.0,-2.2,49,30.40,10.0,NW,5.8,-,N/A,,Mostly Cloudy,320,2013-01-22 09:51:00
4:51 AM,14.0,-2.9,47,30.47,10.0,NW,9.2,-,N/A,,Mostly Cloudy,310,2013-01-22 10:51:00
5:51 AM,14.0,-2.0,49,30.47,10.0,NW,5.8,-,N/A,,Mostly Cloudy,320,2013-01-22 11:51:00
6:51 AM,14.0,-0.9,52,30.47,10.0,North,5.8,-,N/A,,Mostly Cloudy,10,2013-01-22 12:51:00
7:51 AM,14.0,-0.9,52,30.48,10.0,North,4.6,-,N/A,,Mostly Cloudy,350,2013-01-22 13:51:00
8:51 AM,14.0,-0.9,52,30.51,10.0,NNW,3.5,-,N/A,,Overcast,330,2013-01-22 14:51:00
9:51 AM,15.1,-0.9,49,30.52,10.0,SSW,3.5,-,N/A,,Overcast,210,2013-01-22 15:51:00
10:51 AM,16.0,-0.0,49,30.54,8.0,WSW,3.5,-,0.00,Snow,Light Snow,240,2013-01-22 16:51:00
10:56 AM,15.8,1.4,53,30.48,2.5,Calm,Calm,-,0.00,Snow,Light Snow,0,2013-01-22 16:56:00
11:16 AM,15.8,3.2,58,30.48,2.0,Calm,Calm,-,0.00,Snow,Light Snow,0,2013-01-22 17:16:00
11:45 AM,15.8,6.8,68,30.47,1.5,WNW,3.5,-,0.01,Snow,Light Snow,300,2013-01-22 17:45:00
11:51 AM,16.0,7.0,68,30.53,1.5,West,4.6,-,0.01,Snow,Light Snow,260,2013-01-22 17:51:00
12:22 PM,15.8,8.6,73,30.45,1.0,West,3.5,-,0.00,Snow,Light Snow,260,2013-01-22 18:22:00
12:51 PM,16.0,9.0,74,30.48,1.0,West,5.8,-,0.01,Snow,Light Snow,260,2013-01-22 18:51:00
12:56 PM,15.8,8.6,73,30.42,2.0,West,4.6,-,0.00,Snow,Light Snow,260,2013-01-22 18:56:00
1:03 PM,15.8,8.6,73,30.42,3.0,West,5.8,-,0.00,Snow,Light Snow,270,2013-01-22 19:03:00
1:13 PM,15.8,8.6,73,30.42,5.0,West,3.5,-,0.00,Snow,Light Snow,260,2013-01-22 19:13:00
1:51 PM,17.1,9.0,71,30.46,6.0,Calm,Calm,-,0.00,Snow,Light Snow,0,2013-01-22 19:51:00
1:57 PM,15.8,8.6,73,30.41,6.0,NNW,4.6,-,0.00,Snow,Light Snow,340,2013-01-22 19:57:00
2:51 PM,17.1,9.0,71,30.47,9.0,NNW,3.5,-,0.00,Snow,Light Snow,340,2013-01-22 20:51:00
3:51 PM,17.1,9.0,71,30.45,10.0,Calm,Calm,-,0.00,,Overcast,0,2013-01-22 21:51:00
4:51 PM,18.0,9.0,68,30.44,10.0,Calm,Calm,-,N/A,,Overcast,0,2013-01-22 22:51:00
5:51 PM,18.0,9.0,68,30.44,10.0,Calm,Calm,-,N/A,,Mostly Cloudy,0,2013-01-22 23:51:00
6:51 PM,18.0,9.0,68,30.43,10.0,ENE,3.5,-,N/A,,Overcast,60,2013-01-23 00:51:00
7:51 PM,18.0,9.0,68,30.43,10.0,East,3.5,-,N/A,,Mostly Cloudy,100,2013-01-23 01:51:00
8:51 PM,15.1,8.1,74,30.44,10.0,NE,3.5,-,N/A,,Scattered Clouds,50,2013-01-23 02:51:00
9:51 PM,15.1,9.0,77,30.43,10.0,East,3.5,-,N/A,,Partly Cloudy,80,2013-01-23 03:51:00
10:51 PM,14.0,9.0,80,30.44,10.0,ENE,4.6,-,N/A,,Clear,70,2013-01-23 04:51:00
11:51 PM,15.1,9.0,77,30.44,10.0,Calm,Calm,-,N/A,,Partly Cloudy,0,2013-01-23 05:51:00